Regional Weather Roundup
Issued by NWS

Current Version | Previous Version | Text Only | Print | Product List | Glossary On
Versions: 1 2 3 4 5 6 7 8 9 10 11 12 13 14 15 16 17 18 19 20 21 22 23 24 25 26 27 28 29 30 31 32 33 34 35 36 37 38 39 40 41 42 43 44 45 46 47 48 49 50
000
ASUS43 KMKX 010700
RWRWI

WISCONSIN REGIONAL WEATHER ROUNDUP
NATIONAL WEATHER SERVICE MILWAUKEE/SULLIVAN WI
100 AM CST MON MAR 01 2021

NOTE: "FAIR" INDICATES FEW OR NO CLOUDS BELOW 12,000 FEET WITH NO
SIGNIFICANT WEATHER AND/OR OBSTRUCTIONS TO VISIBILITY.

WIZ001-002-006>008-014>016-023>028-010800-
NORTHWEST WISCONSIN

CITY           SKY/WX    TMP DP  RH WIND       PRES   REMARKS
SUPERIOR ARPT  MOCLDY    15   4  61 NW8       30.10R WCI   5
ASHLAND        MOCLDY    15   3  59 NW7       30.06R WCI   5
HAYWARD        MOCLDY    16   4  59 NW8       30.04R WCI   5
SIREN          CLOUDY    18   6  60 N9        30.08R WCI   6
CUMBERLAND     CLOUDY    18   5  57 NW10      30.03R WCI   6
RICE LAKE      CLOUDY    19   6  58 NW8       30.04S WCI   9
CHETEK         CLOUDY    19   9  65 NW5       30.04R WCI  12
LADYSMITH        N/A     19   8  61 NW13      30.03R WCI   6
EAU CLAIRE     NOT AVBL
MENOMONIE      MOCLDY    18   9  69 W9        30.06S WCI   6
NEW RICHMOND   NOT AVBL
OSCEOLA        CLOUDY    20  11  67 W7        30.11R WCI  11
$$

WIZ003>005-009-010-017-018-010800-
NORTH CENTRAL WISCONSIN

CITY           SKY/WX    TMP DP  RH WIND       PRES   REMARKS
MANITOWISH WTR CLOUDY    13   5  70 NW10      29.94R WCI   0
ARBOR VITAE    CLOUDY    17   9  72 NW12      29.93R WCI   4
WOODRUFF       CLOUDY    17   9  72 NW12      29.93R WCI   4
RHINELANDER    CLOUDY    15   5  64 NW10G24   29.92R WCI   2
EAGLE RIVER    CLOUDY    15   7  69 NW13G20   29.91R WCI   1
LAND O LAKES   MOCLDY    16   7  69 NW9G21    29.91R WCI   4
PHILLIPS       CLOUDY    16   9  73 NW5       29.97R WCI   9
TOMAHAWK         N/A     15   9  76 NW5       29.96R WCI   8
MEDFORD        PTCLDY    17   8  67 NW9       29.96R WCI   5
MERRILL        PTCLDY    19   9  65 NW8       29.95R WCI   8
$$

WIZ029-030-035-036-043>047-010800-
CENTRAL WISCONSIN

CITY           SKY/WX    TMP DP  RH WIND       PRES   REMARKS
WAUSAU         CLEAR     20   8  60 W16G25    29.94R WCI   6
MOSINEE        CLEAR     21  10  63 NW9G17    29.97R WCI  11
MARSHFIELD     CLEAR     21  10  62 NW15G23   29.98R WCI   8
STEVENS POINT  CLEAR     21   8  56 NW12G17   29.97R WCI  10
WAUPACA        CLEAR     27  12  53 W12G21    29.97R WCI  17
WAUTOMA        CLEAR     25  17  72 NW13      29.99R WCI  14
WISC RAPIDS    CLEAR     24  11  57 NW12G21   30.00R WCI  13
CAMP DOUGLAS   CLEAR     22  18  84 W12       30.02R WCI  11
$$

WIZ011>013-019>022-031-037>040-048>050-010800-
NORTHEAST WISCONSIN

CITY           SKY/WX    TMP DP  RH WIND       PRES   REMARKS
ANTIGO         CLEAR     18   9  68 NW14G21   29.91R WCI   4
SHAWANO        CLEAR     27  17  63 NW9       29.94R WCI  18
OCONTO         CLEAR     26  13  58 NW13G18   29.92R WCI  15
STURGEON BAY   MOCLDY    27  16  63 W14       29.91R WCI  16
GREEN BAY      CLEAR     28  14  55 NW17G28   29.94R WCI  16
MANITOWOC      CLOUDY    30  21  69 NW14      29.93R WCI  19
APPLETON       PTCLDY    27  12  54 W13       29.92R WCI  16
CLINTONVILLE   CLEAR     26  11  53 NW13G20   29.95R WCI  15
OSHKOSH        CLEAR     26  13  57 W16       29.95R WCI  14
$$

WIZ032>034-041-042-053>061-010800-
SOUTHWEST WISCONSIN

CITY           SKY/WX    TMP DP  RH WIND       PRES   REMARKS
LA CROSSE      CLEAR     22  12  65 NW9       30.09R WCI  12
SPARTA           N/A     22  15  75 W8        30.07R WCI  12
VIROQUA        CLEAR     19  15  86 NW10      30.04R WCI   7
BOSCOBEL       CLEAR     24  14  65 W5        30.08R WCI  18
PRAIRIE DU CHI CLEAR     21  13  72 W9        30.10R WCI  10
PLATTEVILLE    CLEAR     22  18  85 W13       30.06R WCI   9
$$

WIZ056-057-062-063-064-067-068-010800-
SOUTH CENTRAL WISCONSIN

CITY           SKY/WX    TMP DP  RH WIND       PRES   REMARKS
REEDSBURG      CLEAR     24  15  69 W9        30.03R WCI  14
BARABOO/DELLS  CLEAR     23  16  75 W9        30.00R WCI  13
LONE ROCK      NOT AVBL
MINERAL POINT  CLEAR     25  18  74 W9        30.02R WCI  15
MADISON        CLEAR     26  19  74 NW8G18    30.00R WCI  18
MIDDLETON      CLEAR     28  19  68 NW10      30.01R WCI  18
WATERTOWN      CLEAR     27  17  64 W9        29.98R WCI  18
MONROE         CLEAR     25  19  80 W17       30.00R WCI  11
JANESVILLE     CLEAR     28  25  86 W8        30.01R WCI  20
$$

WIZ051-052-058>065-066-070>072-010800-
SOUTHEAST WISCONSIN

CITY           SKY/WX    TMP DP  RH WIND       PRES   REMARKS
MILWAUKEE      CLEAR     32  18  56 NW9G25    29.96R WCI  24
WAUKESHA       CLEAR     27  19  74 NW14      29.97R WCI  15
MILWAUKEE/TIMM CLEAR     30  18  59 NW13      29.97R WCI  20
RACINE         CLEAR     31  20  63 NW8       29.98R WCI  23
KENOSHA        CLEAR     32  23  69 NW13      29.96R WCI  22
FOND DU LAC    CLEAR     28  15  58 NW16G24   29.96R WCI  16
SHEBOYGAN      CLEAR     29  19  66 W16       29.93R WCI  17
WEST BEND      CLEAR     28  19  69 W17       29.93R WCI  16
JUNEAU         CLEAR     26  17  66 W7G18     29.98R WCI  19
$$

LSZ147-162-010800-
LAKE SUPERIOR

STATION/POSITION TIME  TEMP    WIND        PRES    WAVE
                       AIR SEA DIR/SP/G            HT/PER
                 (UTC) (F)     (DEG/KT/KT) (MB)    (FT/S)
DEVILS ISLAND    0600   16     310/ 23/ 27 1018.0R
PORT WING        0640   18     300/ 16/ 22 1018.3R
SAXON HARBOR     0630   19     310/ 20/ 25 1016.6R
$$

LMZ867-665-643>646-010800-
LAKE MICHIGAN

STATION/POSITION TIME  TEMP    WIND        PRES    WAVE
                       AIR SEA DIR/SP/G            HT/PER
                 (UTC) (F)     (DEG/KT/KT) (MB)    (FT/S)
CHAMBERS ISLAND  0640   27     270/ 15/ 20   N/A
NORTHPORT PIER   0640   27     290/ 25/ 29 1012.9R
KEWAUNEE LAKESHO 0606   29     310/  3/  8 1011.8
SHEBOYGAN LAKESH 0600   31     300/ 13/ 16   N/A
PORT WASHINGTON  0640   30     310/  9/ 17 1015.6R
MILWAUKEE LAKESH 0630   31     290/  9/ 13   N/A
KENOSHA   LAKESH 0600   33     300/  8/ 12 1014.2
$$

TC  - TEMPERATURE IN CELSIUS
VSB - VISIBILITY IN STATUTE MILES
WCI - WIND CHILL INDEX
HX  - HEAT INDEX




USA.gov is the U.S. government's official web portal to all federal, state and local government web resources and services.